Theta_e
314 315 315 316 319 321 321 320 321 325 323 315 316 316 318 323 325 329 335 333 340 346 343 345 347 349 353 360 361 359 357 360 364 354 351 352 343 343 343 335 327 319 319 325 335 340 340 341 342 339 336 335 336 334 329 328 333 338 339 339 340 339 340 340 340 341 340 340 341 341 341 341 341 341 341 342 342 341 341 340 340 340 339 337 335 334 334 334 333 332 331 328 330 334 333 332 333
313 314 315 318 320 320 322 322 322 322 318 314 315 317 319 324 324 326 332 334 342 345 346 348 349 352 353 354 355 361 361 354 355 351 347 345 343 344 340 333 326 318 318 326 337 340 340 341 340 339 337 336 336 332 330 333 339 341 340 340 341 340 340 340 341 341 340 339 340 340 340 340 341 341 341 341 341 341 341 341 340 340 338 336 334 334 334 334 333 332 331 328 329 331 331 332 332
313 315 315 320 321 319 324 325 321 316 314 313 314 319 322 323 323 324 329 336 344 345 347 348 348 351 352 358 358 363 363 348 345 345 343 343 344 342 337 329 324 319 317 326 335 337 340 341 340 341 339 337 335 334 336 339 341 342 341 341 341 341 341 341 340 340 339 339 340 339 338 339 341 341 341 341 340 341 340 340 340 339 339 336 333 333 335 335 334 332 329 324 326 329 330 331 331
312 316 317 320 323 323 327 326 321 316 313 314 314 319 322 322 323 323 326 336 342 344 347 346 348 347 352 365 359 359 359 349 345 343 343 343 342 341 337 329 323 319 319 326 331 335 339 339 340 342 340 336 336 338 340 342 342 342 342 341 341 341 341 340 340 338 338 338 338 338 338 338 340 340 340 340 340 340 339 340 340 339 338 334 330 331 333 335 334 333 329 320 320 326 329 330 331
314 318 317 319 323 323 324 321 322 317 313 317 315 317 323 321 322 322 323 331 334 342 346 345 350 347 350 356 352 360 359 349 346 344 344 343 341 338 335 329 322 320 321 325 330 336 338 338 340 339 339 337 337 340 341 342 342 341 341 341 341 340 340 340 340 338 337 337 337 337 337 337 338 339 339 339 339 339 339 339 338 336 335 330 327 328 330 332 332 331 329 322 316 319 324 327 328
317 319 318 320 322 321 322 318 318 316 316 321 317 318 322 319 322 320 322 331 335 342 345 347 350 349 351 350 348 356 354 349 348 345 344 341 339 335 332 327 321 322 324 328 331 336 338 337 337 336 336 337 339 341 342 342 341 341 341 341 340 340 341 340 339 337 336 336 336 335 335 336 336 336 335 336 338 338 337 337 336 334 332 330 326 327 329 330 330 327 326 322 317 317 321 324 325
318 321 322 322 322 321 323 319 316 318 319 321 318 320 320 319 321 319 322 328 339 347 348 348 347 352 354 350 354 354 348 350 348 345 344 340 337 332 329 326 326 327 326 330 333 335 336 334 335 336 336 339 341 342 341 341 341 341 340 341 341 340 340 339 337 335 335 334 334 333 332 332 331 330 328 329 333 335 335 334 333 330 327 327 326 326 329 330 329 327 325 321 317 319 323 326 328
319 323 322 320 322 322 321 319 318 319 320 320 319 320 319 320 320 320 322 321 335 349 350 346 345 358 357 354 362 356 348 350 347 345 343 339 335 331 331 330 330 330 327 329 332 335 336 336 338 339 340 341 341 341 341 340 340 340 340 340 340 339 338 337 335 334 333 332 331 331 330 328 324 321 319 319 321 327 332 332 331 329 323 325 325 326 329 330 329 328 326 321 317 321 327 329 330
318 321 321 319 321 319 317 317 317 318 319 319 319 320 321 321 320 321 321 322 339 348 347 345 347 362 360 358 362 355 348 348 346 344 340 337 336 334 336 333 328 328 326 327 332 337 338 339 341 341 341 341 341 341 340 340 340 340 340 339 339 338 336 335 334 333 331 330 330 329 328 324 319 316 314 314 314 318 324 326 328 325 321 324 324 326 330 330 329 328 327 323 318 320 326 329 330
319 320 322 321 318 316 315 316 317 319 319 319 318 319 321 319 320 321 319 323 340 348 348 349 352 361 359 358 359 354 348 345 344 342 340 340 338 338 338 333 324 322 324 329 335 339 340 341 341 342 341 341 341 340 340 340 340 340 339 338 338 336 335 334 332 332 331 330 328 327 325 320 317 314 311 312 312 313 315 319 320 317 319 325 324 326 329 330 330 328 328 325 320 318 321 327 330
321 319 319 318 315 313 313 315 317 319 319 318 319 318 320 319 320 320 320 328 343 352 353 356 356 355 357 358 359 352 346 344 344 342 342 342 339 339 337 332 324 318 323 333 337 339 341 341 341 342 341 341 341 340 340 340 340 339 338 337 337 335 335 333 333 333 332 330 327 324 322 318 316 313 310 311 311 311 312 314 313 312 318 324 324 326 329 330 330 328 327 326 323 319 319 324 328
321 320 318 318 317 316 315 316 316 319 320 318 319 319 320 319 320 320 320 332 346 354 350 355 356 354 359 359 357 350 345 345 344 343 343 342 340 340 338 333 325 320 327 336 338 339 341 340 341 341 341 342 340 340 340 340 340 338 338 337 336 335 334 334 333 332 330 328 325 322 319 318 317 314 311 310 310 310 311 311 311 310 317 323 324 326 329 330 330 329 328 326 325 322 320 321 324
319 321 318 318 320 319 317 316 318 321 321 321 320 318 320 319 321 321 321 333 343 350 349 351 351 354 360 357 356 351 348 346 344 344 343 342 341 340 338 333 328 329 335 338 338 340 341 341 341 341 340 341 340 340 340 340 340 338 337 336 335 335 334 333 331 329 328 326 324 321 320 320 320 319 316 313 311 310 310 310 310 309 315 322 324 325 328 330 330 330 329 327 326 324 323 321 320
318 320 318 319 320 319 317 316 317 318 317 320 319 318 320 319 321 320 324 339 343 346 349 349 348 356 359 356 357 352 349 348 344 344 342 342 341 339 338 334 334 337 339 339 340 341 340 341 341 340 340 340 339 339 340 340 339 338 337 336 335 335 334 332 329 327 326 324 323 322 321 322 322 322 321 320 318 314 312 310 309 309 314 320 323 325 327 329 330 330 330 329 328 327 325 323 321
318 318 318 319 317 316 317 317 316 315 316 319 318 318 319 319 322 318 325 350 352 346 350 349 347 360 363 357 358 352 349 348 345 344 342 342 340 338 337 336 338 340 341 340 340 340 340 341 340 340 339 339 339 340 341 340 338 337 336 336 336 335 334 331 328 326 325 326 328 327 324 323 325 326 325 324 323 321 318 313 310 310 313 318 322 323 325 327 329 330 331 330 329 329 328 327 324
318 317 317 317 315 314 316 318 317 315 316 319 318 318 319 318 320 323 331 349 353 347 350 350 347 356 359 354 354 350 349 347 344 343 342 341 339 338 337 338 340 341 341 340 340 340 340 341 340 340 340 339 339 341 341 340 338 337 336 336 336 335 333 330 327 325 326 330 333 333 330 329 331 331 330 327 324 324 323 321 316 311 311 314 318 321 322 324 326 328 329 330 330 329 329 328 327
316 317 317 315 315 313 316 317 316 317 318 319 318 317 319 317 324 339 345 347 351 351 351 352 349 353 354 351 351 350 349 346 343 343 341 340 339 338 338 338 339 340 341 341 340 340 341 341 340 340 340 340 340 341 341 339 338 337 337 336 336 335 332 330 329 328 328 332 336 337 335 335 335 335 335 332 328 326 325 324 322 318 313 312 313 316 318 321 323 326 327 327 328 328 328 329 328
316 318 317 314 315 314 316 317 317 318 318 318 318 318 318 317 327 343 355 352 352 357 355 355 354 353 350 350 350 349 348 344 343 342 341 341 340 339 339 339 339 340 341 341 341 341 341 341 341 341 340 340 340 341 340 339 338 337 337 337 337 335 332 331 332 332 332 335 337 338 339 337 337 337 338 337 334 332 331 328 326 325 320 317 317 316 316 317 318 321 324 325 326 325 327 329 329
317 319 317 314 315 315 316 316 316 317 317 318 317 318 318 320 323 335 360 359 355 364 359 355 357 355 350 349 350 348 347 345 344 342 342 341 340 340 340 340 339 339 340 341 341 340 340 339 339 340 340 340 340 340 340 340 339 338 337 337 336 334 331 330 331 334 335 336 337 338 339 338 338 339 340 340 338 336 337 335 333 332 329 327 328 329 327 324 320 317 319 322 322 322 326 331 332
317 318 316 315 316 315 316 316 316 316 316 316 317 318 319 323 318 329 359 358 355 365 362 360 359 355 352 349 348 347 346 346 345 343 342 342 340 341 341 340 340 340 340 340 340 339 338 338 337 338 339 338 339 340 340 340 339 338 337 336 335 332 330 329 330 335 336 336 338 339 339 339 338 339 341 341 340 337 338 338 338 338 336 334 334 336 335 334 331 326 323 322 322 321 323 329 332
318 318 316 316 316 315 316 315 316 316 316 316 315 318 319 323 318 331 357 361 360 358 358 366 360 352 352 350 348 347 346 346 346 344 344 342 340 341 341 341 340 341 341 340 340 338 336 336 336 337 337 336 337 339 340 339 338 337 336 335 334 332 331 332 333 337 338 337 339 339 339 339 339 340 340 339 338 338 338 339 338 338 338 337 337 337 337 337 337 335 333 331 329 327 326 327 329
316 317 317 317 315 315 316 315 316 315 316 315 316 317 318 321 317 328 348 357 363 357 352 359 355 351 350 349 348 345 345 344 344 345 343 341 338 339 340 339 340 340 341 341 340 337 335 336 336 336 336 335 334 337 339 338 337 336 335 334 334 334 335 336 337 338 338 338 339 339 339 339 339 339 339 338 338 338 338 338 338 338 338 338 338 338 338 338 338 337 337 337 336 333 332 332 331
315 315 316 316 316 315 315 316 316 315 316 315 317 317 317 322 316 326 342 344 351 356 353 351 347 345 344 343 343 342 340 339 339 340 339 338 337 338 338 338 339 340 340 340 339 337 337 338 337 337 336 334 333 335 337 336 335 332 331 333 334 335 337 338 339 338 339 339 339 339 339 339 339 339 339 339 338 338 338 338 338 338 338 338 338 338 339 339 338 338 338 338 337 335 334 334 333
315 315 314 315 316 315 316 316 316 316 317 316 319 318 319 319 314 332 353 350 350 354 347 341 339 337 338 340 339 339 338 337 336 336 337 337 338 337 337 338 338 339 339 339 339 338 339 339 339 339 337 335 332 332 334 334 333 331 330 333 335 335 337 338 338 339 339 339 339 339 339 339 339 338 338 338 338 338 338 338 339 339 338 339 339 339 339 339 339 339 339 337 336 335 334 334 334
313 314 314 315 315 315 316 316 316 316 316 317 318 318 319 318 323 342 355 355 352 348 339 336 338 337 338 339 338 337 338 338 336 335 337 337 337 337 337 338 338 339 339 339 340 340 340 340 340 339 338 337 332 331 334 334 334 334 333 334 335 335 336 338 339 339 340 339 339 339 339 339 338 338 338 338 338 339 338 339 339 339 339 339 339 339 339 339 339 338 338 338 337 336 336 336 336
314 314 314 314 315 315 316 316 316 316 315 317 316 319 319 322 340 351 351 354 348 341 338 338 340 339 338 338 337 337 339 339 337 336 337 336 337 337 337 338 338 339 339 339 340 340 340 340 340 340 339 337 332 334 336 335 336 336 335 335 336 337 338 339 340 340 340 339 340 339 339 339 338 338 338 338 339 339 339 339 339 339 339 339 339 339 339 339 338 338 338 337 338 337 336 336 336
314 315 314 315 315 315 316 315 316 315 316 317 316 321 317 318 342 353 351 350 344 341 341 339 339 339 337 336 337 338 337 337 336 337 336 336 337 337 337 338 338 339 339 339 340 339 339 340 341 340 340 338 334 335 337 337 337 337 337 337 338 339 340 340 340 339 339 340 339 339 339 338 338 339 338 338 339 339 338 338 338 338 339 339 339 339 339 339 338 338 337 337 337 336 336 335 336
315 315 315 315 315 316 316 315 316 315 316 317 317 318 319 331 345 351 351 346 342 344 342 339 339 339 337 336 337 338 337 336 336 336 336 337 338 337 338 338 337 338 339 339 339 339 339 340 341 340 340 339 336 337 338 338 338 337 338 338 338 338 339 339 339 340 340 340 340 339 338 338 338 339 338 338 339 338 338 338 338 339 339 339 339 339 339 338 338 337 337 337 336 335 335 335 335
315 314 315 315 315 316 314 316 316 316 318 318 319 313 324 353 354 344 345 342 342 344 341 340 340 339 338 337 337 338 337 336 336 336 337 338 337 337 338 338 338 338 339 340 338 339 340 340 339 337 338 339 338 337 338 338 338 338 338 338 338 338 338 339 339 340 340 340 339 338 338 338 338 338 337 338 338 338 338 339 339 339 339 339 338 339 338 337 337 337 336 336 335 334 334 333 333
314 314 314 313 313 314 314 316 315 317 320 317 320 312 320 346 346 340 342 341 342 342 340 340 339 339 338 337 337 338 337 336 337 337 337 337 337 338 338 338 339 338 339 338 338 339 339 338 337 336 337 337 337 337 337 337 338 338 338 338 339 339 339 339 339 339 339 339 338 337 337 337 337 337 337 337 337 337 338 339 339 338 338 338 338 338 337 336 336 336 336 336 335 334 334 333 333
312 312 313 313 311 311 315 317 315 317 317 318 321 313 325 345 342 341 342 340 342 342 340 340 339 339 338 338 338 338 338 336 337 337 337 338 337 338 339 339 339 338 338 337 337 338 337 337 336 336 337 337 337 337 337 337 338 338 338 339 339 340 339 339 340 339 339 338 337 337 337 337 337 337 337 337 337 336 337 338 338 338 338 337 337 337 336 336 336 336 336 335 335 334 334 334 334
311 311 311 312 310 312 316 316 316 316 315 318 316 312 333 351 343 341 342 340 342 340 339 339 338 340 339 340 339 338 339 337 337 338 337 338 338 339 339 338 338 337 338 337 336 336 337 337 336 336 337 337 337 337 337 337 338 338 338 339 339 339 339 339 340 339 338 338 338 338 337 337 337 337 337 336 337 337 337 337 337 337 337 337 337 337 336 336 336 335 335 334 334 334 334 334 334
313 311 310 311 310 312 316 316 317 317 316 317 317 328 343 352 346 343 342 339 340 340 339 338 339 340 340 340 339 339 340 338 338 338 338 338 337 338 338 338 338 337 337 336 336 336 336 337 336 337 337 337 338 338 338 338 339 339 339 339 339 339 339 339 339 338 338 338 337 337 337 337 337 337 337 337 337 337 337 337 337 337 337 337 337 336 336 335 335 335 334 334 334 334 333 333 333
313 311 311 312 311 312 313 315 317 317 318 314 322 348 352 350 347 344 341 339 340 339 338 339 339 339 339 339 340 340 339 339 339 337 337 338 337 338 338 338 338 338 337 336 336 336 336 337 337 337 338 338 338 339 339 339 339 339 339 338 339 339 339 338 337 337 337 337 337 336 337 337 337 337 337 337 337 337 337 337 336 336 336 336 336 336 335 334 333 333 333 333 333 332 331 330 331
313 312 313 313 313 314 312 315 317 315 318 315 330 354 351 347 347 344 341 339 340 339 338 338 338 338 339 339 340 339 338 339 338 337 338 338 339 339 339 339 339 338 337 336 336 336 336 337 337 337 338 339 339 339 339 339 339 339 338 338 338 338 337 336 336 336 336 336 336 336 336 337 337 337 337 336 337 336 336 336 335 335 335 334 334 333 332 332 331 331 332 332 332 330 329 329 329
313 314 316 314 312 313 312 316 317 316 319 313 330 352 351 347 345 345 342 339 339 338 337 337 337 337 338 338 338 337 338 338 336 336 338 339 340 340 339 339 339 338 338 337 337 336 337 337 337 338 338 339 340 339 339 338 338 338 337 336 336 336 335 335 335 335 334 334 335 335 335 335 336 336 336 336 336 335 334 333 334 334 333 333 332 330 329 329 329 329 330 330 330 329 328 327 327
312 313 314 313 312 313 314 316 315 317 316 311 331 350 350 347 344 343 341 339 339 339 338 338 337 337 337 337 338 337 337 337 336 336 338 339 339 340 340 339 339 339 338 338 338 337 337 337 338 338 339 339 339 339 338 338 338 337 336 335 335 334 334 333 332 332 331 331 332 332 332 332 332 333 333 333 333 332 331 330 331 331 331 330 329 328 328 328 328 328 328 328 328 327 326 325 325
312 312 312 312 312 312 314 315 317 316 313 322 344 352 349 346 344 341 339 339 340 339 339 339 337 336 337 337 337 337 338 337 336 337 337 338 339 339 339 339 339 338 337 337 338 338 338 338 338 339 339 338 338 338 338 338 337 336 335 335 334 333 332 331 330 329 329 329 329 329 328 328 328 328 328 329 329 328 328 327 328 328 328 327 326 326 326 327 326 327 327 326 326 325 323 322 323
313 312 311 312 312 312 315 315 316 312 317 338 348 350 347 344 342 340 339 340 339 337 337 337 336 337 336 337 337 338 338 338 337 337 337 338 339 339 338 338 338 338 337 337 337 337 338 337 337 338 338 338 338 338 338 337 336 335 334 334 333 331 330 329 329 328 328 328 327 326 326 326 326 325 325 325 326 325 326 325 325 326 326 325 325 324 324 324 324 324 324 324 324 324 322 321 321
313 313 311 311 312 312 312 314 319 320 331 345 345 346 345 342 342 341 340 341 340 338 336 336 336 336 336 336 337 337 339 339 338 337 337 338 338 338 338 338 338 337 337 336 336 336 336 336 337 337 337 337 337 337 336 336 335 334 334 333 331 329 327 327 327 326 326 326 325 324 324 324 324 323 323 323 324 324 324 324 323 323 323 323 323 323 322 322 322 321 321 322 322 322 320 318 319
312 313 311 311 312 312 312 320 334 340 342 343 343 347 347 343 343 344 342 343 342 338 337 337 337 336 336 335 335 336 337 338 338 337 337 338 338 338 338 337 337 337 337 336 336 336 335 336 336 336 336 336 336 335 335 334 334 334 333 331 329 328 327 326 325 324 324 324 323 322 322 322 321 321 321 321 322 322 322 321 321 321 321 321 321 321 321 320 319 319 319 319 319 319 317 316 317
313 312 312 312 312 312 315 326 344 351 347 342 341 345 348 345 343 345 344 344 343 340 339 339 338 336 336 336 336 336 337 337 337 337 337 337 338 338 337 337 337 337 337 337 336 336 335 335 336 335 335 334 334 334 334 334 334 334 333 331 329 328 327 326 325 324 323 322 321 320 320 319 319 319 318 319 320 320 320 320 320 320 319 319 319 319 318 317 317 316 316 316 315 315 314 314 314
312 313 313 312 312 312 314 324 340 345 344 342 337 338 346 348 344 344 346 345 345 342 341 340 338 337 336 336 336 335 337 337 336 337 337 338 338 338 337 337 337 337 337 337 336 336 335 334 335 335 334 334 334 333 333 334 334 333 332 330 329 329 327 325 324 323 322 321 320 319 318 317 317 317 317 317 317 318 318 318 318 318 317 317 317 316 315 315 314 313 312 313 313 312 312 312 312
311 313 313 313 313 312 313 318 324 331 338 341 336 336 347 350 346 346 345 346 347 344 344 343 339 338 337 336 336 335 335 336 336 337 337 338 338 337 337 337 337 337 337 337 336 335 334 334 334 334 334 334 333 333 333 333 333 333 332 331 330 328 326 324 323 322 320 319 318 317 316 316 316 316 316 316 316 316 317 317 317 316 316 315 314 312 313 313 311 310 310 311 311 311 311 311 311
311 312 313 314 313 312 315 313 312 321 335 339 337 337 346 349 346 347 346 346 350 347 345 344 340 338 338 336 335 335 334 335 336 337 338 338 337 337 337 337 337 336 336 336 335 335 334 333 333 333 333 333 333 333 333 333 333 333 332 331 329 327 325 323 321 320 318 317 316 315 314 314 314 314 314 314 315 315 315 315 315 314 313 312 311 311 311 311 309 309 309 309 310 309 309 309 308
311 312 312 313 313 312 314 312 311 318 329 335 335 333 341 347 346 348 349 348 349 348 345 343 340 338 337 336 335 334 334 335 336 337 337 337 337 337 337 336 336 336 336 335 334 333 333 333 333 333 333 333 332 332 333 333 333 333 332 331 328 326 323 321 320 318 317 316 314 312 312 312 312 313 313 313 313 314 314 314 313 312 312 311 310 310 310 310 309 309 308 308 308 308 308 307 306
311 313 312 311 313 313 314 316 317 321 326 329 330 329 334 344 348 348 348 347 346 346 346 343 340 338 336 335 335 334 335 336 336 337 337 337 336 336 336 336 335 335 335 335 333 333 333 333 332 332 332 332 332 331 332 332 333 332 331 329 327 324 322 320 319 317 315 314 312 311 310 310 311 311 312 312 312 312 312 312 311 310 311 311 309 309 309 309 309 308 308 307 307 306 306 306 305
310 312 311 310 314 313 311 314 314 317 322 323 325 326 324 334 346 348 344 344 344 344 345 344 341 338 336 334 334 335 336 336 336 337 337 336 335 335 335 335 334 334 334 334 333 332 332 331 331 331 331 331 332 331 331 331 331 330 328 327 325 323 321 319 318 316 314 313 312 310 309 309 309 310 310 310 311 310 310 310 309 310 310 310 309 308 308 308 308 307 307 307 306 304 304 304 303
310 310 311 312 313 312 311 314 316 318 321 322 323 322 319 326 341 345 343 343 343 343 343 342 340 338 336 334 334 335 336 336 336 337 337 335 335 334 334 334 333 333 332 331 331 330 329 327 328 328 328 329 330 329 329 328 327 327 326 325 324 322 320 319 317 315 314 313 311 309 308 308 308 309 309 309 309 309 308 308 308 309 309 309 309 308 307 306 307 307 307 306 305 303 302 301 302
309 309 311 313 313 312 313 317 320 322 324 323 321 322 322 324 331 339 343 342 342 342 341 340 339 338 336 333 334 336 336 336 336 336 335 335 334 333 333 333 332 332 330 329 328 327 326 325 325 326 325 326 327 326 326 326 326 326 325 324 323 321 319 317 316 315 314 313 311 309 307 307 308 308 308 308 308 308 308 307 307 307 308 308 308 308 306 305 305 306 306 305 304 302 301 301 301
309 309 313 314 315 316 315 318 320 321 325 323 319 322 326 325 328 337 341 340 340 342 340 339 338 336 334 333 335 337 336 336 335 335 335 334 333 333 332 332 331 330 329 327 326 325 324 324 324 324 323 323 324 323 323 323 323 324 324 323 322 320 318 316 315 314 314 313 311 309 307 307 307 307 308 308 307 308 308 308 307 307 307 307 307 307 306 305 304 305 305 304 303 302 301 300 300
310 310 312 312 317 320 317 323 329 328 325 321 321 328 332 333 335 339 341 341 342 341 339 338 337 335 334 334 336 337 336 336 335 334 334 333 332 332 331 330 329 328 327 325 324 324 323 323 322 323 322 322 322 321 321 321 321 321 322 321 320 318 316 315 314 313 313 313 311 308 307 307 306 306 307 307 307 307 307 307 307 306 306 306 306 306 306 305 304 304 304 303 302 302 301 300 298
315 310 310 311 316 320 318 319 325 329 325 321 331 340 339 341 343 341 342 343 342 340 338 338 337 335 334 335 337 337 336 335 334 334 333 332 331 331 330 329 328 326 325 324 323 323 323 322 321 321 321 320 320 320 320 319 319 319 319 319 318 316 315 314 313 313 312 311 308 306 306 306 306 305 306 306 306 306 306 306 306 306 306 305 305 305 305 305 304 304 304 303 302 302 301 300 298
316 309 311 313 313 321 330 326 321 325 326 324 337 346 342 344 347 343 344 344 341 340 338 337 336 335 335 336 337 337 336 335 334 333 332 331 330 330 329 329 327 326 324 323 322 322 322 322 321 320 319 319 319 319 318 318 318 317 317 317 316 315 314 314 312 312 311 309 306 305 306 305 305 305 305 305 306 306 305 305 305 305 305 305 305 305 305 304 304 304 303 303 302 301 301 300 298
314 311 313 317 316 317 324 327 321 322 325 323 330 340 341 342 345 344 345 344 342 340 338 337 336 335 336 336 337 337 336 335 334 333 332 331 330 329 329 328 326 325 324 323 322 321 321 321 321 320 319 318 317 317 317 317 316 316 316 315 315 314 314 313 312 311 310 307 305 305 305 305 305 305 304 304 305 305 305 305 305 305 304 304 304 304 304 304 303 303 303 303 302 301 300 300 299
312 312 312 318 326 321 316 322 324 322 325 323 324 334 341 341 342 345 345 343 341 340 339 338 336 336 336 336 337 337 335 335 334 333 331 330 329 329 328 327 325 324 323 322 321 320 320 320 319 318 317 316 316 316 315 315 315 315 314 314 314 313 313 312 311 310 308 306 306 305 305 304 304 305 304 304 304 305 305 305 305 304 304 304 304 304 304 303 303 303 303 302 301 301 300 300 299
311 312 312 313 317 316 316 321 321 321 327 327 329 337 341 338 339 342 343 342 341 340 340 338 336 335 336 336 337 337 335 334 333 332 330 329 329 328 327 326 324 324 322 321 320 319 319 319 318 317 317 315 315 315 314 314 314 313 313 313 313 312 312 311 309 308 307 306 306 305 304 304 304 304 304 304 304 304 304 304 305 304 304 304 304 303 303 303 303 303 302 301 301 300 300 299 299
314 316 318 317 313 315 321 320 316 321 331 332 332 335 337 338 337 339 341 341 340 340 340 339 337 335 336 337 337 336 335 334 332 331 330 329 329 327 326 325 324 323 322 320 319 318 318 318 317 316 316 315 315 314 314 313 312 312 311 311 312 312 311 310 308 307 306 305 305 304 304 303 303 303 303 303 303 304 304 304 304 304 304 304 304 303 303 303 303 302 302 301 300 300 300 300 299
Wind_Speed
20 21 20 22 22 9 2 3 2 3 3 2 3 1 2 4 3 3 2 1 2 4 2 1 4 6 6 7 9 7 4 2 4 4 3 2 14 27 23 24 31 28 28 26 23 21 19 21 19 21 25 24 23 21 20 20 20 20 20 19 19 18 17 16 15 15 14 14 14 14 14 14 14 14 14 13 13 13 12 12 11 11 11 11 11 11 11 11 11 11 11 12 13 13 14 16 17
20 20 20 21 15 5 1 2 3 4 4 4 4 1 3 4 5 5 5 2 4 2 0 6 8 10 11 10 8 6 4 3 4 4 3 13 21 22 24 29 30 28 29 26 23 22 21 21 19 22 24 24 22 21 20 20 20 19 19 19 18 18 17 16 15 14 14 14 13 13 13 13 13 13 13 13 12 12 12 11 10 10 10 10 10 10 10 10 10 9 10 12 14 14 16 17 16
18 19 20 18 9 4 2 3 3 2 3 4 4 2 2 6 7 5 4 2 8 7 6 9 9 8 8 6 3 4 1 2 9 6 5 18 18 18 28 30 29 29 28 26 25 24 23 21 21 21 22 23 21 20 20 20 19 18 19 18 18 17 16 16 15 14 14 13 13 13 12 12 12 12 12 12 12 12 11 10 9 9 9 8 8 9 9 9 9 9 10 12 14 14 15 15 15
16 17 18 11 5 4 4 3 2 3 1 4 4 4 2 4 8 5 1 5 8 9 7 6 5 3 3 5 2 4 4 4 9 10 8 15 18 24 30 30 30 29 28 27 25 25 24 22 22 21 21 22 20 20 19 20 19 18 18 18 17 17 16 15 14 14 13 13 12 12 11 11 12 11 11 11 11 10 9 9 8 8 7 7 7 8 9 8 8 8 9 11 13 13 14 14 14
14 14 11 4 3 2 2 2 1 2 3 3 3 6 5 6 7 9 3 6 8 5 5 4 3 2 3 4 2 2 5 7 9 13 13 17 26 31 30 30 31 29 28 27 26 26 24 23 23 22 21 21 20 20 20 19 19 18 18 18 17 16 15 15 14 14 13 12 11 11 10 10 10 10 9 9 9 9 8 8 7 5 6 7 7 8 9 8 8 7 8 9 11 12 13 13 12
15 11 6 3 2 1 3 1 1 2 5 4 3 8 8 9 7 10 7 1 4 3 3 4 6 5 3 2 2 2 5 9 10 14 19 25 32 34 32 32 30 29 29 27 27 26 24 24 23 23 21 20 20 20 20 19 19 19 18 17 17 15 15 14 14 13 12 11 10 9 8 8 7 7 7 7 7 7 7 6 5 5 5 6 7 8 9 8 7 7 8 9 11 12 12 12 12
13 8 3 4 2 1 4 2 4 3 5 5 4 9 11 12 9 10 7 2 1 2 2 4 11 9 2 1 3 1 5 10 11 16 27 34 35 35 33 31 30 29 28 27 27 26 25 24 23 22 21 20 20 20 20 19 19 18 17 16 16 15 14 14 13 12 11 10 9 8 6 6 5 5 5 5 5 6 6 5 5 5 5 6 6 7 8 8 7 7 8 9 11 12 12 12 11
8 3 1 4 2 2 3 2 3 4 4 5 5 9 13 13 10 10 9 5 2 1 2 6 10 7 1 2 2 2 6 12 16 24 33 38 37 35 33 31 30 28 28 28 27 25 24 23 22 21 21 20 20 20 19 19 19 18 17 16 15 14 14 13 12 11 10 9 7 6 5 5 4 3 3 3 4 5 5 5 5 4 5 7 7 7 7 7 7 7 8 9 11 12 13 12 11
5 1 1 3 1 2 0 2 3 4 5 7 7 11 13 12 9 8 11 7 3 5 7 8 3 6 2 4 3 2 8 19 26 32 34 36 36 34 33 32 32 30 29 28 26 25 23 23 22 21 21 20 20 20 19 18 18 17 16 15 14 14 13 12 11 10 9 7 6 5 5 4 4 3 3 3 3 4 4 5 5 4 6 8 8 8 7 7 6 7 8 9 10 12 12 11 11
4 0 0 2 1 1 3 3 4 3 6 8 8 12 12 11 9 9 14 8 7 7 5 4 4 7 6 4 2 1 12 28 33 32 31 34 35 34 33 32 31 31 30 28 26 25 23 22 22 22 21 20 20 19 19 18 18 16 15 14 14 13 12 11 9 8 7 6 5 5 5 5 4 4 4 4 4 4 4 4 5 5 7 9 8 8 7 6 6 6 7 8 8 9 11 10 10
3 2 1 2 1 2 3 4 5 4 6 7 7 12 11 9 8 10 11 3 8 8 6 4 6 8 8 3 1 4 21 32 33 30 31 34 33 34 33 30 30 30 31 29 26 25 23 22 21 21 20 20 19 19 19 18 17 16 15 14 13 12 11 9 8 7 6 6 6 6 6 6 6 6 6 5 5 5 5 5 5 7 9 10 9 8 7 6 6 6 6 6 7 8 8 8 9
1 2 3 3 3 4 5 4 5 5 6 7 8 11 7 8 8 9 5 5 7 7 6 4 7 7 6 2 1 8 22 27 29 31 32 34 33 32 32 31 30 30 31 29 27 25 23 22 21 20 20 20 19 18 18 17 17 15 15 14 12 11 9 8 7 7 6 6 7 7 7 7 7 8 8 8 7 6 6 6 6 8 9 10 9 8 7 6 5 5 5 5 6 6 7 6 6
2 2 5 2 4 4 4 4 5 5 5 5 8 9 6 8 8 7 2 4 7 6 4 7 10 6 4 2 2 7 15 21 28 31 33 34 32 32 32 31 31 30 30 29 27 25 23 22 21 20 19 19 19 18 17 16 16 15 14 13 11 10 9 8 8 7 7 8 9 9 8 8 9 10 10 10 9 8 8 7 7 8 10 10 9 7 7 6 5 4 4 4 4 5 5 5 4
3 2 5 2 2 4 4 3 4 4 5 6 7 9 5 6 9 7 1 3 2 5 5 9 12 8 4 3 3 5 11 21 28 31 32 32 31 31 31 31 30 30 29 28 27 24 23 22 20 19 18 19 18 17 16 15 15 15 14 12 11 10 9 8 7 8 9 11 10 10 9 9 10 10 11 11 11 11 10 9 8 8 9 9 8 7 6 6 5 4 3 3 3 3 3 3 3
5 2 4 2 2 3 4 3 4 5 5 7 7 8 8 8 9 9 5 5 2 3 9 8 6 4 6 9 6 9 16 25 29 31 32 31 31 31 30 30 29 29 28 26 25 23 22 21 20 19 19 19 18 17 16 15 14 14 13 12 11 10 9 8 7 9 12 13 12 11 10 10 10 10 10 10 11 11 11 10 8 7 7 7 7 6 5 5 4 4 3 2 2 2 1 1 1
4 2 2 2 3 3 4 4 5 5 5 7 9 7 8 12 8 5 4 6 6 5 6 4 4 0 10 10 8 19 24 27 32 34 33 32 31 30 29 29 27 26 26 25 23 21 21 20 19 18 18 18 18 17 15 15 14 13 13 11 10 10 8 8 9 11 13 14 13 12 10 10 10 9 10 9 10 10 10 10 9 7 6 5 5 4 4 3 3 2 2 1 1 1 1 1 0
1 2 3 3 4 5 4 5 5 5 6 7 10 9 7 11 5 1 5 7 10 6 2 1 1 1 9 7 14 30 30 31 36 35 33 31 30 27 26 26 25 24 23 22 21 20 19 19 18 18 18 18 17 16 16 15 14 13 12 11 11 10 8 9 10 11 12 12 11 10 9 9 9 9 9 9 10 10 9 9 8 7 6 5 3 3 2 2 2 2 1 1 0 1 2 2 1
2 3 5 5 5 6 6 8 6 5 6 6 10 11 7 7 2 2 4 7 7 5 4 3 5 5 8 14 26 33 30 35 36 33 29 26 26 24 22 23 24 23 21 20 19 19 18 18 17 18 18 17 17 16 16 16 15 14 13 12 11 9 9 10 11 11 10 10 9 8 7 7 8 8 8 8 9 10 9 8 7 7 6 6 5 3 1 1 2 3 3 3 3 2 3 3 2
5 3 5 7 6 7 7 8 6 5 7 7 11 10 5 7 5 5 3 3 5 7 4 4 6 7 10 20 29 30 30 33 31 30 27 24 25 24 22 22 23 23 22 20 19 18 18 18 18 18 18 17 16 16 16 16 15 14 13 12 10 10 10 11 10 10 9 8 7 7 6 4 5 6 6 5 7 8 8 8 7 6 6 5 5 4 4 3 3 3 3 4 4 3 3 3 1
4 3 5 6 6 7 7 8 8 8 8 9 10 7 5 8 6 4 6 6 4 7 4 2 4 7 12 16 23 27 28 28 27 28 25 24 25 24 24 23 24 23 22 22 20 18 18 19 19 19 18 18 17 16 16 16 15 14 12 11 11 10 11 11 10 9 8 6 5 5 4 3 4 4 3 2 3 5 6 6 6 6 6 5 4 4 5 5 6 5 5 5 6 5 5 4 3
3 5 6 5 6 8 9 10 10 11 10 7 7 7 8 8 4 2 10 8 1 5 8 9 11 13 15 15 18 22 24 23 24 27 25 25 24 25 27 26 24 23 22 22 19 19 20 20 20 20 19 18 18 17 17 16 14 13 12 12 11 10 11 11 10 8 6 4 4 4 3 2 3 2 1 1 2 3 4 5 4 5 5 6 5 5 5 6 7 6 6 6 7 8 8 8 9
3 6 7 6 6 7 9 11 12 12 10 6 7 9 8 5 4 1 10 8 5 7 8 8 12 14 14 12 13 13 14 12 13 19 22 23 22 24 28 26 25 25 25 25 22 21 22 22 21 20 19 19 19 18 17 15 14 13 12 12 11 11 10 9 8 6 5 6 6 5 3 2 3 3 2 2 3 2 3 3 3 4 5 6 6 5 6 6 6 6 6 7 7 8 8 8 9
5 6 6 7 8 7 7 9 12 11 7 6 8 8 5 3 5 1 4 4 6 4 5 9 11 15 20 20 17 14 13 12 11 12 19 24 22 23 26 28 28 28 30 30 28 26 24 24 21 19 20 19 19 19 16 15 14 13 13 13 11 11 9 8 8 7 6 8 8 5 4 4 4 4 4 3 3 3 2 2 3 3 4 5 5 6 7 6 6 5 5 6 6 6 6 7 7
8 8 6 8 10 10 10 11 11 7 7 7 5 3 3 3 3 1 4 2 5 12 17 18 17 22 28 24 19 18 15 13 12 17 25 28 26 26 28 28 29 29 30 30 29 28 26 24 22 20 19 19 19 19 17 16 15 14 14 12 10 8 7 7 7 8 9 9 7 5 4 4 4 4 5 4 3 2 1 1 2 3 3 4 4 5 6 5 4 4 5 5 5 4 6 7 7
10 10 8 7 9 11 12 14 13 9 8 6 5 5 5 5 1 3 5 6 14 19 18 17 17 19 20 19 20 20 18 16 15 20 28 30 27 27 28 27 28 30 30 28 29 29 26 24 23 21 21 20 20 20 18 16 15 14 13 10 7 6 6 7 9 11 11 9 7 5 4 4 5 4 5 5 4 3 2 1 2 2 3 3 4 4 4 4 4 4 5 6 6 5 7 8 8
9 11 9 9 10 10 11 14 15 13 8 5 7 10 7 5 5 6 4 9 15 18 17 16 17 16 13 13 15 16 16 16 18 21 23 26 26 25 26 28 29 31 30 27 29 30 28 27 26 24 24 22 21 22 19 17 16 14 13 11 9 9 10 12 13 12 10 8 8 6 4 4 5 4 4 5 5 5 4 4 4 4 3 3 2 2 3 4 5 6 7 8 8 8 8 9 10
5 9 10 12 12 11 9 12 13 10 7 8 11 11 8 5 5 3 3 11 15 18 16 15 16 13 11 10 10 12 14 15 21 22 18 18 22 24 26 28 29 31 31 28 28 29 27 28 26 24 23 22 22 22 19 18 17 16 16 14 14 14 14 14 12 10 8 8 7 7 5 5 5 5 6 7 7 7 6 5 5 4 3 3 1 1 3 4 5 6 7 8 8 9 10 10 10
5 7 9 12 14 13 11 13 10 6 5 10 12 9 3 3 3 5 7 10 14 18 14 12 13 10 10 11 9 9 12 18 24 25 20 18 22 27 29 30 31 32 32 30 29 29 27 26 24 22 22 22 22 22 21 20 18 18 18 17 16 14 13 11 10 9 8 7 6 6 6 6 5 6 7 8 8 9 8 7 6 5 3 2 1 2 3 4 5 6 6 6 7 8 9 9 9
8 8 7 11 12 13 15 16 9 7 6 9 9 4 3 6 3 4 9 9 11 16 12 10 10 9 9 9 9 8 11 16 19 21 22 24 26 28 28 29 34 35 33 33 31 30 28 26 24 22 23 23 23 24 23 22 21 20 19 16 14 13 12 11 9 9 8 7 6 7 8 8 6 7 8 8 9 9 8 8 7 5 3 2 1 2 3 4 5 5 5 5 6 7 8 9 9
8 8 7 7 7 10 15 15 8 8 6 7 8 3 3 4 3 3 10 11 12 13 10 8 8 8 8 7 8 8 9 11 14 19 23 26 27 27 27 29 34 35 34 33 31 30 29 27 27 26 25 26 26 27 26 23 21 19 17 15 13 12 11 10 9 7 7 6 6 7 7 7 7 7 6 6 8 9 9 9 8 6 4 3 2 2 3 5 5 5 5 5 6 7 8 9 9
5 6 5 6 6 7 10 11 8 7 5 8 9 4 5 3 2 6 8 9 14 13 8 8 7 6 7 7 8 8 7 10 15 21 25 27 29 30 32 33 34 34 34 32 31 31 30 29 29 27 26 27 27 26 25 22 19 17 16 14 13 11 10 9 8 6 6 6 6 6 6 6 6 6 7 7 9 11 11 10 8 7 5 4 3 3 4 5 6 6 6 6 7 7 8 8 9
3 4 6 6 6 5 6 11 10 8 4 6 8 3 4 3 5 5 4 6 13 14 8 7 7 7 8 7 8 8 7 11 17 22 27 30 33 35 36 37 36 34 34 33 32 33 32 29 28 27 26 26 26 24 22 20 18 16 15 14 13 11 10 9 8 8 7 7 5 6 6 6 6 7 8 8 9 10 11 10 8 7 5 4 4 4 5 6 6 7 7 8 8 9 9 9 9
3 5 6 6 6 4 4 8 10 10 6 4 6 5 3 3 5 5 4 7 12 13 8 7 8 8 8 7 7 8 7 9 13 19 26 29 33 37 39 38 36 35 36 35 35 34 32 29 27 26 25 24 24 22 21 19 18 16 15 14 12 12 11 10 10 9 9 8 7 8 9 9 9 9 9 9 10 11 11 10 8 7 6 5 5 6 6 7 7 7 7 8 9 9 10 10 11
5 4 4 4 5 6 4 5 6 10 8 6 3 5 4 5 6 4 4 8 12 13 10 9 8 7 7 7 7 8 9 10 10 15 22 24 27 31 33 34 33 33 34 34 34 32 30 27 25 24 23 23 22 21 20 19 18 16 15 14 13 13 13 12 11 11 12 11 10 11 11 12 12 12 12 12 12 11 10 9 8 8 7 7 7 6 6 6 7 7 8 8 8 9 10 12 12
4 4 3 3 4 7 7 5 5 7 7 6 4 6 5 7 6 4 4 7 11 12 10 9 8 6 6 6 6 7 8 9 9 12 15 15 16 19 21 24 26 28 28 30 30 29 28 26 24 23 22 22 22 21 20 19 18 17 16 15 16 16 16 15 15 15 16 14 13 11 11 11 10 9 9 8 8 7 7 8 9 9 8 7 7 6 6 6 6 7 7 8 8 9 11 12 13
5 6 4 5 5 6 7 5 6 8 6 6 6 6 8 9 7 6 5 5 9 11 10 8 7 6 5 5 5 6 8 7 7 11 10 9 11 13 15 18 22 24 25 27 28 27 26 24 23 23 22 22 22 21 20 19 19 19 19 19 19 19 19 20 19 18 18 17 14 12 11 11 9 8 6 5 5 5 7 8 8 8 7 6 6 6 7 7 7 7 7 7 7 8 11 13 14
4 5 4 7 5 4 5 4 6 8 6 5 6 10 10 11 8 6 7 6 9 13 13 10 8 7 6 7 7 7 7 6 8 12 9 8 12 14 17 20 22 22 23 25 25 25 24 23 23 23 22 22 21 21 21 20 21 21 22 23 24 23 23 23 22 20 19 18 16 14 13 12 11 10 8 7 7 7 8 8 8 8 6 5 5 6 5 4 5 6 6 7 8 10 13 16 16
8 5 4 6 6 5 5 5 5 6 6 2 7 12 9 8 6 3 6 8 9 11 13 12 10 8 6 7 8 7 7 7 9 10 7 9 14 16 17 19 21 21 21 23 23 24 23 22 23 23 21 20 20 21 20 20 21 21 23 26 26 25 23 24 23 21 19 18 15 14 13 12 12 12 10 9 8 8 8 8 8 7 6 5 6 6 5 4 4 5 5 7 7 10 13 16 18
8 5 4 5 5 4 4 5 5 4 4 2 8 11 5 3 4 3 5 6 5 5 8 11 12 10 7 7 8 9 10 9 9 8 6 10 14 14 15 16 18 20 19 20 21 22 22 21 21 21 20 20 20 20 20 20 19 20 24 27 27 25 24 23 22 20 18 16 15 13 12 11 10 10 10 9 8 8 7 7 7 6 5 4 4 5 6 6 7 7 7 7 6 8 11 15 17
8 5 4 4 4 5 4 5 4 2 3 6 9 8 4 2 3 2 3 4 5 6 6 7 8 8 9 9 8 10 12 10 8 8 6 9 13 13 14 15 15 16 17 17 19 19 20 20 20 21 20 19 19 19 19 18 19 22 25 25 25 26 25 23 21 19 17 16 15 13 11 9 8 8 8 8 8 8 7 7 7 5 5 4 4 5 7 8 9 9 8 7 6 8 11 14 15
8 7 6 4 4 7 5 3 4 5 5 10 12 6 1 2 3 2 2 5 7 8 10 8 6 6 7 8 8 9 11 11 11 10 6 8 13 13 14 16 15 15 16 16 17 18 19 20 20 20 19 19 19 18 18 19 23 25 25 25 24 24 23 21 20 19 17 16 15 13 11 9 8 8 8 8 8 8 7 8 7 6 7 6 6 7 9 9 9 10 9 9 9 10 11 14 15
8 8 8 7 6 6 4 6 6 5 2 6 8 4 2 2 4 4 3 6 8 8 10 11 9 8 7 9 10 9 10 10 12 13 11 10 13 15 16 18 17 16 16 17 17 17 18 19 19 19 18 18 18 17 19 23 25 27 27 26 24 22 20 17 18 18 16 16 15 13 12 9 8 9 9 9 9 8 9 9 8 8 8 9 9 9 10 11 11 12 12 12 14 13 13 17 18
7 6 8 9 9 5 4 7 5 3 3 7 7 5 2 2 5 7 7 9 10 9 11 12 11 10 9 9 9 9 9 9 10 12 13 12 13 15 16 18 18 17 16 17 17 17 17 17 18 18 17 17 17 19 23 26 26 26 25 24 22 21 19 18 16 16 16 16 15 13 12 10 9 9 10 10 10 10 10 10 9 10 11 11 11 11 13 14 15 16 15 16 18 18 18 21 19
6 4 8 8 10 8 6 5 4 3 2 4 6 4 4 4 6 8 9 11 11 11 12 12 12 11 10 8 8 10 10 10 9 10 11 12 14 15 16 17 18 18 18 18 17 17 17 17 17 17 17 17 18 21 24 24 25 24 22 21 20 18 19 19 17 16 16 15 15 13 12 12 11 10 11 11 11 11 11 11 11 11 13 13 13 15 17 17 17 18 19 20 21 21 22 23 22
5 3 6 6 8 8 6 5 6 3 4 2 5 3 4 3 4 7 11 11 12 13 15 14 13 14 11 9 10 11 11 10 9 10 11 12 15 17 17 18 19 19 20 19 18 17 17 17 17 17 17 17 18 20 21 21 21 21 21 20 19 18 18 19 18 17 16 15 16 15 14 13 13 13 13 13 13 13 13 13 13 13 15 16 17 19 19 19 20 21 22 22 23 24 25 25 26
4 5 6 4 5 4 6 6 5 2 4 6 10 7 4 2 4 8 10 11 12 11 13 13 12 13 11 10 11 11 9 9 9 10 10 13 16 19 20 20 20 20 20 20 18 17 18 17 18 18 18 18 18 18 19 19 19 19 19 19 18 19 19 19 18 17 16 16 17 17 15 15 15 15 15 15 15 15 15 15 15 16 18 19 19 20 20 21 22 23 23 23 23 25 25 26 27
3 6 6 5 4 1 2 4 2 3 3 7 13 13 6 3 5 9 10 12 15 12 10 12 12 13 12 10 11 11 9 9 8 9 10 13 17 20 22 21 21 21 20 20 19 19 20 19 19 19 19 19 18 18 19 20 19 18 18 17 18 20 21 20 19 18 17 18 19 18 17 17 17 17 17 17 17 17 17 18 18 19 20 20 21 21 21 21 22 22 23 23 23 24 24 25 26
4 6 4 3 4 2 1 2 1 4 6 6 12 13 7 4 5 10 12 11 16 17 14 17 18 16 14 11 11 11 9 9 9 9 10 12 14 18 21 21 21 22 21 21 21 22 22 20 19 20 18 18 18 18 20 20 19 18 17 17 19 21 21 19 19 19 19 19 19 18 18 18 18 18 18 19 19 18 19 19 19 19 20 21 21 21 21 20 21 21 22 22 23 23 23 24 26
8 7 4 3 2 1 2 3 3 5 6 6 9 11 7 5 6 15 18 12 16 20 18 20 22 19 15 13 12 10 9 10 9 8 10 9 10 14 18 19 21 23 23 22 23 23 22 21 22 22 20 19 19 20 20 19 18 18 19 19 20 21 20 19 19 20 19 19 18 17 17 18 19 19 20 20 20 19 19 19 19 20 20 21 21 21 21 20 20 21 22 23 23 24 24 25 26
10 8 6 5 4 3 4 4 2 3 5 6 9 12 6 4 3 14 21 19 20 21 17 18 21 19 16 14 13 11 10 11 9 9 10 8 10 15 17 18 20 23 24 23 24 24 24 24 24 24 23 22 22 21 20 19 18 19 20 21 21 21 20 20 21 21 20 18 16 16 17 18 19 20 20 20 20 20 20 20 20 21 21 20 20 20 20 20 20 21 22 23 24 24 24 25 25
10 7 6 5 4 5 4 4 3 5 4 3 6 8 4 3 3 9 16 15 14 14 11 12 13 12 13 12 12 11 11 11 9 9 10 10 13 18 19 19 21 23 24 24 24 26 26 25 25 25 23 21 21 20 19 19 18 19 20 21 22 22 21 21 21 20 19 16 15 16 18 18 19 20 20 20 20 20 20 20 20 21 20 20 20 20 20 20 21 22 23 23 24 24 24 25 23
6 4 6 5 5 5 3 4 6 5 3 1 4 3 2 3 3 4 8 10 8 11 10 11 11 9 11 12 11 11 11 11 10 10 10 12 15 20 20 20 22 23 24 25 25 26 27 25 24 23 22 20 19 19 18 18 18 19 20 22 22 22 22 22 22 20 18 15 15 17 18 19 19 19 19 19 19 19 19 19 20 20 20 20 19 19 20 20 21 22 22 23 23 23 23 24 23
4 5 6 6 6 6 3 3 2 3 5 3 1 2 1 1 5 5 9 13 10 12 13 13 12 11 13 13 11 12 12 12 11 10 11 13 16 20 21 21 22 24 24 26 26 27 27 25 23 22 20 19 18 18 18 18 19 20 20 21 22 22 22 22 21 20 18 16 16 18 20 20 19 19 19 19 19 19 19 19 19 19 19 19 19 19 19 20 20 21 22 22 22 21 22 23 23
5 5 7 4 4 3 3 3 2 3 4 4 1 5 4 1 2 2 8 12 11 12 14 14 12 13 15 13 12 13 13 13 12 11 12 14 17 20 22 21 23 25 26 26 27 27 26 24 23 22 20 19 19 18 18 18 19 20 20 21 21 20 20 20 20 19 18 18 19 20 21 20 20 19 19 19 20 20 20 19 19 19 19 19 19 19 19 19 20 21 22 21 20 19 21 22 22
5 5 7 6 5 3 1 3 3 2 3 2 1 4 4 3 5 6 10 13 13 13 14 15 15 16 15 14 14 13 13 13 12 12 11 13 17 21 23 22 23 26 27 27 27 27 26 24 22 21 20 19 19 18 18 18 17 18 19 20 20 19 19 19 19 18 17 19 21 21 21 20 20 19 19 20 20 20 20 20 20 20 19 18 18 18 18 18 19 20 20 19 18 18 19 20 20
4 3 4 4 4 5 3 3 4 4 4 2 2 1 3 4 8 13 16 15 16 16 15 16 18 18 16 14 14 13 14 13 13 12 11 13 18 22 24 25 25 27 28 28 28 28 26 25 23 22 21 19 19 18 18 17 16 17 17 18 19 18 17 18 18 18 19 21 21 20 20 20 20 20 20 20 20 20 21 21 21 21 20 19 19 18 18 18 18 18 18 17 17 17 18 18 18
5 3 3 3 3 3 3 2 3 4 4 4 3 1 5 5 7 15 19 17 18 20 19 17 17 17 16 15 15 13 13 13 13 12 11 13 19 22 23 25 27 27 27 28 29 28 27 26 24 23 22 20 19 18 17 16 15 15 16 17 18 18 18 19 19 20 21 21 20 20 20 20 20 19 19 19 20 20 20 20 21 21 21 20 19 19 18 17 18 18 18 17 17 17 16 16 16
6 4 4 5 5 4 3 2 2 3 4 5 5 3 6 5 7 13 16 17 18 20 20 17 17 18 16 15 15 14 14 14 13 13 12 13 18 21 23 25 27 26 25 26 28 28 27 26 24 23 22 20 18 17 16 16 16 16 18 19 20 20 21 21 21 22 22 22 21 21 20 20 20 19 18 18 19 19 19 20 20 20 20 20 19 19 18 16 17 18 17 17 16 16 15 14 14
Wind_Direction
331 332 336 338 337 350 54 61 39 324 48 331 278 29 256 251 328 333 299 128 64 297 280 77 110 114 117 121 140 132 88 153 168 148 193 194 144 156 165 161 155 151 150 149 150 151 152 150 146 144 142 142 142 141 139 136 134 132 130 126 122 120 119 115 113 109 108 107 104 105 103 103 103 104 104 106 105 103 103 99 98 96 92 83 76 70 67 64 60 60 59 76 100 106 111 116 117
331 333 336 339 346 20 335 60 76 332 23 328 297 147 261 310 349 340 302 201 126 230 43 88 86 83 96 103 120 106 45 25 106 122 130 132 133 149 162 159 155 151 150 148 150 152 151 149 145 144 143 143 142 141 138 134 132 129 127 123 120 119 119 117 115 111 110 108 106 106 105 106 104 106 107 108 108 105 104 99 95 91 83 75 76 73 70 68 64 66 65 79 101 113 118 121 120
331 335 340 345 356 39 17 43 73 9 17 305 295 244 290 339 314 317 331 114 135 142 109 99 86 82 97 81 59 94 114 74 110 110 123 139 135 146 156 155 153 151 149 148 151 152 150 148 145 143 143 143 141 139 135 132 131 127 126 122 121 120 119 119 117 116 114 110 108 106 108 109 106 106 106 106 107 105 102 98 95 90 81 75 83 81 74 69 64 68 72 86 104 115 120 121 120
331 337 342 356 15 24 49 38 103 120 308 267 287 282 299 303 282 293 57 142 158 140 122 113 73 24 90 116 119 96 141 147 136 133 138 158 150 149 151 150 150 148 148 148 150 150 148 148 146 143 143 142 139 137 134 132 132 129 127 124 124 124 123 121 119 119 116 113 109 108 109 109 110 108 107 107 107 106 104 104 102 95 87 82 89 87 80 71 67 72 80 93 106 118 121 122 120
331 341 348 32 74 20 75 46 81 107 251 224 274 289 287 273 283 296 267 180 201 165 135 138 98 16 56 121 153 116 141 130 151 147 136 152 151 150 149 148 149 146 148 149 149 147 145 148 146 144 142 142 140 137 136 134 132 130 128 127 127 125 124 121 119 120 118 115 113 112 111 109 110 109 110 112 115 117 118 119 113 105 94 88 91 85 76 68 65 73 83 96 108 120 125 124 122
336 355 24 68 107 158 99 37 291 276 250 187 252 282 286 284 287 292 297 178 207 150 137 137 116 104 72 1 26 112 146 126 151 157 140 146 151 150 148 147 147 146 148 149 148 145 145 148 145 144 142 141 140 138 138 135 133 132 131 130 128 126 124 122 120 119 117 116 115 115 114 114 114 114 121 121 121 129 134 129 116 110 101 100 100 87 74 67 66 72 82 95 108 119 125 126 124
345 1 38 46 16 83 98 181 220 245 251 185 227 276 283 289 292 296 310 345 351 36 352 122 115 104 93 17 33 44 130 133 147 155 148 148 151 148 147 147 145 145 147 148 146 143 145 145 143 142 141 141 142 140 138 136 135 132 132 131 130 129 127 124 121 119 118 116 116 117 118 121 124 130 139 139 129 132 138 132 125 112 99 111 111 92 81 73 72 77 84 94 108 122 127 127 126
356 2 41 72 16 13 101 200 227 213 252 237 237 267 277 286 293 299 295 271 257 190 140 147 125 100 27 59 82 301 103 136 146 147 148 145 147 145 147 147 144 145 147 148 142 141 145 143 143 142 141 143 144 141 139 137 136 134 134 134 133 132 129 125 123 122 120 120 121 121 124 123 130 138 148 156 140 132 132 130 134 118 95 112 117 100 88 81 81 83 86 95 112 128 132 132 131
15 44 7 79 86 349 36 263 267 231 256 271 268 271 276 283 288 293 288 279 158 157 162 170 140 106 142 62 104 307 95 132 139 141 144 142 144 144 148 150 147 146 147 146 142 144 147 146 145 143 143 145 145 141 140 139 136 136 137 137 136 134 131 128 125 122 120 119 120 119 119 117 118 119 126 141 142 136 131 126 131 126 111 120 123 109 96 92 92 90 89 94 112 133 140 139 137
21 36 60 88 125 299 299 278 264 262 264 268 271 274 279 287 294 291 285 275 148 142 150 125 63 106 124 91 106 309 124 134 134 136 142 141 145 147 149 151 150 147 146 146 146 148 147 148 147 145 146 146 145 142 141 140 138 138 139 140 138 136 133 128 122 117 112 108 106 106 106 102 94 87 88 103 116 122 124 125 128 124 122 129 128 117 108 103 102 101 97 94 105 130 144 147 143
21 317 123 123 154 217 251 257 258 264 273 285 285 276 280 292 294 285 283 232 148 134 136 93 85 113 102 96 305 131 138 137 135 140 145 145 148 149 148 149 150 149 148 147 148 148 146 149 148 147 148 147 147 144 144 142 140 141 140 140 138 136 131 125 120 113 108 100 94 95 93 85 77 75 77 82 92 103 110 114 118 124 128 134 134 125 119 113 112 110 104 99 99 112 134 150 149
69 294 93 139 193 203 213 227 261 267 278 297 288 278 289 298 288 270 276 137 158 139 148 151 132 130 95 108 282 135 143 142 142 144 146 146 148 147 147 148 149 149 148 146 146 146 147 149 148 149 150 148 148 146 146 144 143 143 141 141 138 135 128 122 116 110 107 96 90 90 85 77 76 78 78 78 78 83 95 102 110 127 136 140 140 134 125 117 114 111 108 103 99 103 116 138 152
179 194 113 167 202 187 202 207 258 279 286 278 268 279 302 303 289 257 281 111 171 168 167 159 145 132 100 131 158 148 152 150 145 144 145 144 144 144 145 146 145 146 145 144 144 145 147 148 149 151 152 151 150 148 148 146 145 145 144 143 139 133 126 118 109 106 102 94 93 91 87 81 80 80 79 77 72 71 81 95 110 129 143 147 146 141 130 121 112 107 105 100 96 98 102 116 139
188 191 133 197 229 170 195 203 254 265 270 264 263 282 291 287 291 281 250 106 204 188 142 135 137 113 104 140 141 175 165 154 146 143 143 140 140 139 139 140 141 141 141 142 142 144 148 149 151 153 155 154 152 152 151 149 148 148 147 144 140 133 123 112 104 105 102 100 99 95 93 88 83 79 79 77 72 69 70 83 104 127 144 151 154 148 138 126 116 110 103 99 94 88 88 93 107
184 196 126 181 237 183 217 201 220 238 256 266 265 284 292 281 285 290 225 152 12 132 120 124 154 104 153 175 174 186 166 151 144 140 139 134 134 133 134 135 135 137 138 140 141 145 149 151 154 156 159 156 155 157 153 149 151 153 150 147 142 131 120 108 105 109 111 108 101 97 97 91 82 75 76 78 77 72 67 70 85 114 139 151 158 155 148 138 126 120 110 101 96 86 69 61 82
177 159 127 192 216 214 233 207 210 235 254 261 267 283 293 288 280 290 261 134 104 138 124 145 225 143 174 187 166 165 157 144 140 137 132 127 126 125 127 127 129 133 135 138 140 146 150 153 156 159 160 158 159 159 154 151 154 157 153 151 143 130 120 109 111 117 119 111 99 94 91 86 77 69 66 67 74 75 72 67 67 81 113 140 157 164 160 157 151 144 133 117 99 80 20 2 43
153 164 210 218 210 214 211 205 203 210 243 260 277 280 269 289 305 14 353 79 117 145 85 114 289 67 171 169 141 152 149 139 137 133 128 124 121 118 118 119 122 127 130 136 141 148 152 157 160 161 163 161 162 159 156 155 159 161 157 154 145 134 124 120 119 120 121 110 96 87 79 78 71 66 61 53 55 60 68 70 66 65 74 99 126 163 182 199 202 209 224 237 277 342 336 318 288
194 175 209 218 200 204 195 199 204 197 234 251 264 268 249 270 266 138 29 55 92 92 29 23 33 43 124 129 141 148 140 136 136 132 128 125 122 117 115 117 120 125 129 135 143 152 156 161 165 166 168 167 166 163 161 160 162 164 161 157 148 141 135 131 124 118 118 107 95 77 67 72 66 60 52 47 44 42 49 56 62 65 66 75 77 78 82 254 245 252 257 264 274 298 323 321 284
194 173 200 217 197 204 205 205 216 209 228 246 258 271 265 249 201 155 120 119 114 91 24 14 67 78 111 129 142 143 136 137 137 132 130 126 123 120 118 119 126 130 134 140 148 157 164 168 171 173 173 173 172 168 167 166 166 167 164 160 152 146 143 140 130 119 116 105 93 73 61 63 67 57 43 46 36 29 35 38 42 50 58 67 65 55 37 13 341 310 288 284 286 289 305 328 278
200 186 212 227 208 217 223 219 229 233 237 250 268 288 283 248 214 165 135 143 149 138 147 116 122 133 132 138 143 141 138 139 137 132 129 124 119 119 125 131 136 137 139 146 152 161 171 174 176 180 179 179 180 175 172 171 172 170 166 162 157 152 149 147 138 125 120 104 88 85 73 56 75 60 40 54 10 11 26 27 27 31 37 42 43 36 26 17 4 350 332 317 315 308 294 300 282
202 204 215 216 205 222 228 226 233 240 243 256 293 310 289 263 256 140 126 122 232 202 190 173 166 157 148 148 144 141 137 138 137 132 127 121 118 126 135 137 137 134 135 142 151 165 175 178 179 182 184 186 187 183 179 177 173 170 168 165 161 158 155 153 147 137 134 126 113 122 114 86 106 87 17 289 326 358 18 15 18 22 24 18 11 8 7 5 359 354 346 340 335 327 316 313 305
235 231 218 205 200 220 228 227 233 239 248 276 293 285 274 277 315 136 136 145 210 215 215 181 159 149 139 128 122 114 106 106 120 132 128 113 116 132 133 132 134 135 140 147 157 172 178 178 177 180 185 188 189 187 183 178 172 170 168 164 162 160 159 155 150 146 151 155 155 158 154 163 170 190 242 264 299 324 357 2 9 10 15 10 358 352 353 352 347 343 343 344 337 330 329 327 319
233 246 223 214 210 216 232 232 233 232 238 255 257 251 245 300 317 296 140 194 207 169 83 76 82 89 83 75 74 68 59 52 58 94 106 108 125 139 134 136 141 144 150 158 166 175 178 178 178 180 185 187 187 187 185 179 172 168 162 159 161 162 163 157 149 149 152 156 162 175 183 195 207 221 230 236 267 272 299 343 357 2 13 11 357 348 348 349 342 334 335 337 330 327 334 333 327
223 241 233 228 225 224 234 242 238 218 213 229 240 234 215 262 293 11 20 11 103 82 77 80 79 84 86 85 89 91 87 80 76 84 104 127 147 146 139 141 145 149 153 161 172 175 173 177 181 183 186 186 185 182 178 173 166 161 157 157 158 162 170 167 162 161 158 160 170 186 192 201 212 223 222 214 226 222 203 339 3 7 19 19 6 356 351 349 343 333 335 340 333 324 322 319 318
227 231 233 235 236 231 231 242 247 237 234 234 240 248 234 228 140 60 26 65 91 89 88 91 94 95 99 109 112 114 120 123 126 121 130 149 152 140 138 140 146 154 155 162 175 175 170 174 182 186 186 187 183 176 170 166 164 164 163 166 176 192 194 180 175 169 164 169 179 186 190 189 189 198 205 195 188 172 152 117 77 58 45 35 27 13 1 2 2 348 341 345 338 323 314 311 314
224 222 230 234 238 238 229 236 240 240 239 207 232 254 247 206 98 43 37 95 99 95 96 101 106 105 105 114 118 125 130 132 138 138 146 154 145 136 138 143 152 159 160 168 176 175 173 177 183 186 185 187 182 175 171 170 175 180 181 185 190 183 169 165 169 171 175 186 185 183 177 170 174 175 174 172 168 156 139 119 106 91 77 67 52 19 2 359 353 344 337 338 333 327 324 318 317
215 213 228 233 239 244 231 233 231 231 229 194 214 231 235 212 119 85 98 108 106 103 107 115 114 112 113 119 126 128 126 135 142 139 144 147 141 140 143 151 159 162 165 170 174 173 175 178 182 184 186 189 182 178 182 186 191 192 189 182 170 161 159 164 174 184 190 193 190 187 177 164 165 157 152 159 158 150 137 124 124 116 102 93 68 354 345 343 338 337 338 340 337 335 335 330 328
242 224 234 236 239 246 240 243 228 193 214 204 199 202 249 339 83 122 123 118 117 117 119 119 115 121 127 130 133 128 132 148 149 143 146 152 152 152 154 159 160 164 167 165 167 170 172 178 183 186 192 193 187 187 191 191 186 179 177 174 168 168 173 179 189 199 197 193 194 190 176 162 159 152 151 157 152 144 140 136 133 120 97 84 37 345 341 345 343 343 348 351 348 344 343 341 338
244 232 241 244 242 245 240 245 227 165 195 197 172 162 344 351 8 104 120 129 122 116 117 114 119 131 133 132 130 130 142 150 148 147 153 156 159 159 158 160 159 162 165 164 166 168 172 177 177 177 182 185 184 185 181 174 169 166 169 172 174 177 181 189 196 199 196 193 189 181 171 159 152 148 149 154 146 135 133 131 122 107 80 73 41 354 347 351 353 353 358 356 351 349 349 349 343
243 226 229 244 247 242 235 240 218 171 196 182 156 185 276 321 322 137 131 135 120 109 113 117 123 128 128 131 128 136 149 150 148 150 154 154 159 160 156 159 160 160 162 165 167 170 174 172 165 163 164 167 167 169 168 166 166 167 169 172 175 178 184 194 195 191 185 182 183 179 169 157 147 138 138 144 139 129 124 119 107 94 77 80 73 21 358 357 360 359 3 0 357 356 355 355 348
251 229 219 215 225 239 232 234 202 171 205 166 146 201 234 263 244 166 147 143 124 116 120 120 124 125 128 132 132 142 149 151 151 151 153 153 156 158 157 161 164 162 163 166 169 172 172 166 163 160 159 162 162 164 166 169 171 170 171 172 173 178 186 191 188 180 163 160 171 169 153 142 134 125 125 121 119 118 118 114 99 85 80 84 80 48 15 7 8 3 3 3 5 4 359 359 351
237 218 226 204 212 245 228 225 200 175 204 162 145 181 217 208 225 198 161 150 123 116 120 119 128 131 131 137 140 144 143 146 149 151 155 157 157 158 160 164 166 167 166 167 170 170 167 164 165 163 161 165 165 166 168 171 172 171 171 170 171 174 177 180 180 175 159 151 147 135 120 113 112 112 111 106 104 100 100 102 91 86 93 92 76 47 22 12 9 8 11 9 14 16 7 357 344
231 205 221 204 199 221 226 231 206 176 178 195 167 160 183 186 214 220 162 144 120 116 125 125 135 138 139 146 146 146 141 141 148 156 162 162 161 160 163 166 169 171 168 167 167 166 163 162 165 165 165 168 167 167 168 169 169 168 168 166 165 165 165 167 164 158 149 142 128 114 107 100 102 108 106 103 102 96 96 100 95 93 91 78 57 35 26 20 12 14 21 24 29 28 15 359 346
243 213 209 212 183 178 207 240 208 170 171 209 158 126 167 168 174 186 154 146 126 124 138 140 144 149 150 150 149 150 146 148 158 165 165 164 164 165 168 170 170 168 165 164 164 164 162 161 165 166 168 170 169 168 166 166 165 164 162 159 156 153 155 154 148 138 129 125 117 110 108 102 103 109 110 109 106 101 100 97 90 83 71 60 49 39 36 28 22 24 35 46 43 30 19 7 355
204 187 172 204 176 174 192 209 195 164 172 194 113 96 149 150 154 155 156 161 137 133 144 146 150 152 151 149 150 153 149 151 155 157 158 161 167 170 172 169 164 160 159 160 162 163 163 163 166 168 170 171 168 166 163 162 161 158 155 151 148 146 142 138 132 125 118 116 111 106 104 100 100 102 103 104 97 89 82 78 77 71 65 66 61 58 48 30 30 33 43 56 45 28 18 8 359
171 172 170 188 186 200 196 194 197 162 161 201 149 129 153 156 170 161 158 165 131 132 141 143 150 149 148 149 153 154 148 142 140 146 146 147 155 157 157 155 153 153 154 158 161 163 164 165 167 168 170 171 167 164 162 161 158 153 149 144 138 134 129 126 124 120 116 113 111 108 106 104 104 100 94 93 91 86 80 78 78 74 74 79 74 66 51 31 26 30 38 42 31 20 11 6 1
234 191 195 199 190 222 204 200 216 159 151 220 159 143 159 164 175 161 152 153 137 142 148 152 158 156 158 157 156 154 145 131 128 137 130 121 132 136 143 149 150 149 152 158 159 160 164 167 169 168 168 170 170 166 165 165 160 151 145 138 130 125 123 121 118 117 115 113 114 114 112 112 111 108 104 104 106 103 98 94 93 93 92 91 90 82 64 35 19 22 28 26 20 19 17 13 5
264 234 220 219 200 217 203 194 227 170 157 209 125 134 160 163 160 156 152 154 153 154 154 158 160 158 163 156 153 148 135 122 122 131 120 109 122 131 143 152 153 150 150 156 157 159 164 167 169 169 167 169 171 171 170 167 162 154 143 135 130 126 125 124 120 119 118 116 115 114 113 113 112 110 109 111 111 108 105 102 102 107 109 105 101 92 80 64 39 26 20 23 29 29 29 22 13
258 243 216 233 211 203 218 212 216 172 158 160 125 131 147 145 129 136 154 147 135 141 151 159 159 158 161 157 153 145 135 127 129 138 127 114 122 133 143 151 155 152 149 150 154 158 161 163 167 170 170 168 169 171 170 165 159 151 141 134 131 127 125 125 124 123 124 120 115 111 110 108 109 109 108 110 108 105 101 98 101 109 117 114 103 87 73 62 49 37 28 24 30 33 34 29 27
244 234 200 238 221 177 216 232 204 116 102 131 123 112 102 92 92 118 149 126 106 118 136 148 158 158 157 158 153 146 142 132 130 143 137 124 129 136 142 148 152 150 147 148 150 154 158 163 166 167 168 167 166 166 165 161 151 142 135 131 131 128 125 126 124 121 122 119 113 108 104 102 104 104 105 106 102 99 96 98 104 108 108 100 90 79 66 57 48 41 34 26 29 37 40 38 40
237 227 200 220 223 200 204 179 126 55 67 118 112 86 38 147 148 163 137 122 121 128 136 142 155 152 147 152 151 149 149 140 136 149 166 151 145 146 146 150 154 151 151 153 155 158 159 162 164 163 164 165 165 162 157 154 147 139 133 129 129 127 126 127 123 117 116 113 107 102 98 97 102 104 104 102 99 99 100 104 108 106 100 88 80 76 68 60 52 49 47 47 52 51 56 58 56
243 232 204 207 225 224 178 132 111 66 79 153 127 109 278 221 173 184 155 143 144 138 147 156 160 160 160 161 160 158 152 149 150 158 175 176 159 153 150 152 157 155 154 158 162 165 164 163 164 162 162 163 164 162 156 152 147 143 140 138 136 132 127 127 125 121 117 112 107 104 101 101 105 106 102 99 100 103 106 108 107 103 95 86 81 76 72 68 65 65 63 66 70 70 77 73 63
242 213 176 202 227 227 156 138 135 125 194 215 190 163 188 218 198 189 169 161 160 153 158 165 166 173 180 173 165 158 151 158 166 165 169 173 165 158 153 154 158 156 157 160 163 167 166 163 164 165 164 163 161 159 156 152 149 147 147 147 146 141 132 127 128 124 119 116 113 110 106 104 105 104 100 98 102 107 108 107 104 100 91 84 80 77 78 78 75 74 73 77 79 77 79 73 63
235 177 151 196 222 216 176 163 199 189 152 212 202 147 127 188 197 181 169 166 169 165 165 169 173 183 186 174 165 164 167 173 173 167 166 167 165 161 156 156 160 159 159 161 162 163 166 164 164 165 163 161 158 157 156 155 154 153 154 151 146 143 136 131 130 126 122 120 114 109 106 104 102 100 99 98 103 107 108 106 101 95 88 83 82 84 86 84 81 80 80 82 81 77 77 76 72
243 193 171 199 215 204 166 176 233 213 104 187 219 143 118 188 185 167 169 174 180 174 172 175 178 185 184 172 172 175 179 180 169 168 170 164 159 160 160 159 159 159 158 161 162 163 167 165 160 157 154 154 156 157 159 159 160 160 159 153 143 139 138 135 133 128 125 118 108 105 102 101 100 98 97 98 103 107 106 104 99 93 90 88 88 90 90 86 83 82 82 82 80 78 80 81 79
257 235 221 230 228 198 155 185 226 181 137 201 212 189 140 164 189 172 169 184 192 181 177 181 180 185 185 175 179 180 178 179 170 167 164 156 155 157 159 156 154 155 155 158 161 162 165 161 154 149 147 149 152 155 160 163 164 165 162 157 148 144 142 139 134 127 122 113 103 100 98 98 98 97 98 99 103 105 105 104 99 95 97 95 92 93 92 87 85 85 84 82 81 81 82 81 80
276 264 239 252 267 63 134 201 160 135 218 221 204 195 165 150 196 187 182 190 184 173 176 181 180 187 188 182 183 182 178 176 168 161 151 145 147 150 151 151 150 149 150 154 158 158 157 153 149 146 146 150 150 153 159 162 166 168 167 165 157 153 149 142 134 126 119 110 101 98 97 97 98 99 101 102 102 104 105 103 100 100 102 99 94 93 93 90 88 87 85 83 80 80 81 80 79
232 259 220 226 291 9 35 274 120 179 237 238 202 195 186 182 198 198 206 199 175 173 180 179 180 187 186 182 183 185 181 171 164 157 145 140 142 144 145 146 145 144 146 151 154 150 147 146 145 143 145 151 154 157 159 161 165 168 168 166 161 157 152 144 134 127 119 110 104 101 100 99 100 102 103 104 103 104 105 104 102 103 103 100 96 93 92 91 90 88 85 83 80 78 78 78 78
210 236 198 167 224 244 219 223 212 213 237 243 190 176 201 230 204 196 201 198 183 186 186 178 179 183 180 177 180 184 177 164 159 152 146 146 146 143 142 144 143 143 146 149 148 145 142 142 142 139 139 145 151 155 158 160 164 167 166 163 159 155 150 141 133 128 121 113 110 108 104 103 104 105 105 105 106 106 105 103 101 102 102 101 98 94 91 90 90 89 86 84 81 78 77 78 79
201 213 184 167 172 174 213 222 230 224 239 248 179 163 200 248 211 197 195 193 190 190 188 179 178 177 173 173 175 177 170 161 157 150 149 152 150 145 143 145 145 145 148 148 145 144 142 141 142 139 136 141 147 150 153 154 156 162 164 161 157 153 145 138 134 129 122 117 116 114 110 108 108 108 108 107 108 108 106 103 101 102 103 102 100 97 92 89 91 92 89 86 83 81 78 78 79
206 203 145 158 171 161 204 204 185 210 235 263 163 159 193 195 239 223 196 189 184 177 175 171 170 168 163 166 171 171 166 161 156 152 151 153 152 148 146 149 149 147 149 147 145 145 144 144 145 143 140 142 146 147 149 149 148 153 157 156 153 149 143 138 134 130 126 123 123 121 116 111 110 111 112 110 111 110 108 106 104 102 103 103 100 100 97 92 93 94 90 87 85 81 77 75 74
209 168 133 187 186 157 196 190 180 186 175 168 155 157 211 178 309 301 155 147 153 154 151 155 159 158 158 166 174 169 165 162 159 155 152 153 153 148 149 153 151 148 148 148 147 147 146 146 146 146 145 146 148 148 149 148 147 148 151 150 148 146 142 138 134 132 129 128 129 127 121 114 113 114 115 115 113 111 110 109 106 103 103 103 101 101 100 95 93 94 91 88 85 82 77 72 72
182 160 184 212 173 142 142 195 208 103 131 208 161 104 325 47 352 355 121 132 146 150 152 160 162 160 165 174 177 170 166 163 160 159 155 155 154 151 153 156 151 149 150 149 150 150 150 149 148 147 147 149 151 152 152 151 149 147 147 147 146 144 142 138 135 133 130 128 129 127 122 117 115 115 116 118 115 111 110 110 109 107 104 103 102 103 102 98 94 92 91 90 87 82 77 71 71
152 187 202 193 160 144 105 158 281 57 140 244 91 137 178 130 5 342 121 135 156 159 158 162 162 166 174 178 176 172 167 161 158 158 156 154 155 154 156 157 154 152 152 151 152 153 154 155 155 153 151 152 154 154 153 152 151 149 147 147 147 145 141 138 135 133 131 129 128 126 123 120 118 117 117 120 118 114 110 109 110 111 108 105 103 102 102 100 96 93 92 91 88 83 79 74 70
160 182 180 159 169 214 166 155 188 136 167 252 51 151 191 170 163 168 155 160 167 164 162 165 171 177 179 176 175 169 161 159 158 160 160 157 158 159 158 157 155 153 154 154 154 155 156 158 160 159 157 156 155 154 153 153 153 150 148 148 148 146 142 139 136 134 133 131 129 127 126 124 124 123 121 121 121 118 114 111 110 112 110 106 102 101 101 99 95 94 93 91 87 83 82 78 72
189 160 169 171 164 177 186 166 159 165 186 185 106 128 248 218 178 169 173 176 169 165 171 177 180 182 178 174 172 166 161 163 163 164 165 160 160 162 160 156 155 155 156 155 155 156 158 160 161 160 158 156 156 156 156 154 154 153 150 149 150 148 146 142 138 137 135 133 133 133 131 129 129 128 126 125 124 123 121 117 115 113 111 107 103 100 99 98 97 96 94 91 88 86 84 81 75
195 177 192 200 162 152 170 176 149 139 161 169 141 200 262 244 186 174 176 177 173 173 176 181 182 180 177 174 169 165 163 163 164 164 162 159 160 160 159 156 155 156 156 156 157 158 159 162 164 163 161 158 157 158 160 159 158 158 157 155 153 151 147 143 140 140 137 136 137 136 134 133 133 132 132 130 127 127 127 124 120 116 112 109 105 102 101 100 100 99 95 91 89 89 86 85 81
172 171 197 185 160 141 139 211 242 124 145 168 150 191 259 244 186 181 177 176 179 179 175 177 179 176 174 173 169 164 162 161 163 162 159 160 159 157 157 156 155 156 156 156 157 158 160 164 165 165 164 162 162 163 162 160 156 154 154 153 151 148 144 143 143 142 139 138 138 137 138 138 135 135 137 135 133 132 131 128 123 118 115 112 108 107 106 104 103 100 95 92 91 88 87 89 84